Weather History for Eagle River, WI

Change the Weather History Date:

Sunday, August 12, 2012

  Actual Average Record
Temperature  
Mean Temperature 55 °F -  
Max Temperature 69 °F 75 °F 85 °F (2010)
Min Temperature 41 °F 51 °F 41 °F (2012)
Degree Days  
Heating Degree Days 10    
Growing Degree Days 5 (Base 50)    
Moisture  
Dew Point 48 °F    
Average Humidity 77    
Maximum Humidity 100    
Minimum Humidity 43    
Precipitation  
Precipitation 0.00 in - - ()
Sea Level Pressure  
Sea Level Pressure 30.00 in    
Wind  
Wind Speed 0 mph (West)    
Max Wind Speed 6 mph    
Max Gust Speed -    
Visibility 9 miles    
Events Fog    
Averages and records for this station are not official NWS values.
T = Trace of Precipitation, MM = Missing Value Source: NWS Daily Summary

Daily Weather History Graph

Daily Weather History Graph

Search for Another Location

Airport:

Trip Planner

Search our weather history database for the weather conditions in past years. The results will help you decide how hot, cold, wet, or windy it might be!

Date:

Astronomy

Aug. 12, 2012 Rise Set
Actual Time 5:53 AM CDT 8:09 PM CDT
Civil Twilight 5:20 AM CDT 8:42 PM CDT
Nautical Twilight 4:39 AM CDT 9:23 PM CDT
Astronomical Twilight 3:53 AM CDT 10:08 PM CDT
Moon 1:00 AM CDT (8/12) 4:41 PM CDT (8/12)
Length of Visible Light 15h 21m
Length of Day
14h 15m
Waning Crescent, 24% of the Moon is Illuminated
Aug 12
Waning Crescent
Aug 17
New
Aug 24
First Quarter
Aug 31
Full
Sep 8
Last Quarter

Hourly Weather History & Observations

Time (CDT) Temp. Dew Point Humidity Pressure Visibility Wind Dir Wind Speed Gust Speed Precip Events Conditions
12:15 AM 44.6 °F 44.6 °F 100% 30.03 in 10.0 mi Calm Calm - N/A   Scattered Clouds
12:35 AM 44.6 °F 44.6 °F 100% 30.03 in 0.8 mi Calm Calm - N/A   Mostly Cloudy
12:55 AM 44.6 °F 44.6 °F 100% 30.02 in 10.0 mi Calm Calm - N/A   Clear
1:15 AM 42.8 °F 42.8 °F 100% 30.02 in 10.0 mi Calm Calm - N/A   Clear
1:55 AM 42.8 °F 42.8 °F 100% 30.02 in 0.5 mi Calm Calm - N/A Fog Fog
2:15 AM 42.8 °F 42.8 °F 100% 30.02 in 10.0 mi Calm Calm - N/A   Scattered Clouds
2:35 AM 42.8 °F 42.8 °F 100% 30.03 in 10.0 mi Calm Calm - N/A   Scattered Clouds
2:55 AM 42.8 °F 42.8 °F 100% 30.02 in 0.5 mi Calm Calm - N/A Fog Fog
3:35 AM 42.8 °F 42.8 °F 100% 30.02 in - Calm Calm - N/A   Unknown
3:55 AM 41.0 °F 41.0 °F 100% 30.02 in 10.0 mi Calm Calm - N/A   Clear
4:15 AM 41.0 °F 41.0 °F 100% 30.02 in 10.0 mi Calm Calm - N/A   Clear
4:35 AM 41.0 °F 41.0 °F 100% 30.02 in 2.5 mi Calm Calm - N/A   Mostly Cloudy
4:55 AM 41.0 °F 41.0 °F 100% 30.02 in 2.5 mi Calm Calm - N/A   Scattered Clouds
5:15 AM 41.0 °F 41.0 °F 100% 30.02 in 1.8 mi Calm Calm - N/A   Mist
5:35 AM 41.0 °F 41.0 °F 100% 30.02 in 10.0 mi Calm Calm - N/A   Mostly Cloudy
5:55 AM 41.0 °F 41.0 °F 100% 30.02 in 10.0 mi Calm Calm - N/A   Scattered Clouds
6:15 AM 41.0 °F 41.0 °F 100% 30.03 in 10.0 mi Calm Calm - N/A   Clear
6:35 AM 42.8 °F 42.8 °F 100% 30.03 in 10.0 mi Calm Calm - N/A   Clear
6:55 AM 42.8 °F 42.8 °F 100% 30.03 in 10.0 mi Calm Calm - N/A   Clear
7:15 AM 46.4 °F 46.4 °F 100% 30.03 in 10.0 mi Calm Calm - N/A   Clear
7:55 AM 51.8 °F 51.8 °F 100% 30.03 in 10.0 mi Calm Calm - N/A   Clear
8:15 AM 53.6 °F 51.8 °F 94% 30.03 in 10.0 mi Calm Calm - N/A   Clear
8:35 AM 53.6 °F 51.8 °F 94% 30.03 in 10.0 mi Calm Calm - N/A   Clear
8:55 AM 55.4 °F 51.8 °F 88% 30.03 in 10.0 mi Calm Calm - N/A   Clear
9:15 AM 57.2 °F 53.6 °F 88% 30.03 in 10.0 mi Calm Calm - N/A   Clear
9:35 AM 60.8 °F 50.0 °F 68% 30.02 in 10.0 mi Calm Calm - N/A   Clear
9:55 AM 60.8 °F 46.4 °F 59% 30.01 in 10.0 mi Calm Calm - N/A   Clear
10:15 AM 62.6 °F 44.6 °F 52% 30.02 in 10.0 mi Calm Calm - N/A   Clear
10:35 AM 62.6 °F 44.6 °F 52% 30.01 in 10.0 mi Calm Calm - N/A   Clear
10:55 AM 62.6 °F 46.4 °F 55% 30.01 in 10.0 mi Calm Calm - N/A   Clear
11:15 AM 64.4 °F 44.6 °F 49% 30.01 in 10.0 mi Calm Calm - N/A   Clear
11:35 AM 64.4 °F 46.4 °F 52% 30.01 in 10.0 mi Calm Calm - N/A   Clear
11:55 AM 64.4 °F 46.4 °F 52% 30.01 in 10.0 mi NNW 3.5 mph - N/A   Clear
12:35 PM 64.4 °F 46.4 °F 52% 30.01 in 10.0 mi Calm Calm - N/A   Clear
12:55 PM 66.2 °F 46.4 °F 49% 30.01 in 10.0 mi Calm Calm - N/A   Clear
1:35 PM 68.0 °F 44.6 °F 43% 30.00 in 10.0 mi NNE 3.5 mph - N/A   Clear
1:55 PM 68.0 °F 46.4 °F 46% 30.00 in 10.0 mi Calm Calm - N/A   Clear
2:35 PM 68.0 °F 46.4 °F 46% 29.99 in 10.0 mi Calm Calm - N/A   Clear
2:55 PM 69.8 °F 48.2 °F 46% 29.99 in 10.0 mi Calm Calm - N/A   Clear
3:35 PM 69.8 °F 50.0 °F 49% 29.98 in 10.0 mi NW 3.5 mph - N/A   Clear
3:55 PM 69.8 °F 50.0 °F 49% 29.97 in 10.0 mi West 3.5 mph - N/A   Clear
4:15 PM 69.8 °F 50.0 °F 49% 29.97 in 10.0 mi WNW 4.6 mph - N/A   Clear
4:35 PM 69.8 °F 50.0 °F 49% 29.97 in 10.0 mi Calm Calm - N/A   Clear
4:55 PM 69.8 °F 48.2 °F 46% 29.97 in 10.0 mi Calm Calm - N/A   Clear
5:35 PM 69.8 °F 46.4 °F 43% 29.97 in 10.0 mi Calm Calm - N/A   Clear
5:55 PM 69.8 °F 48.2 °F 46% 29.97 in 10.0 mi Calm Calm - N/A   Clear
6:15 PM 69.8 °F 48.2 °F 46% 29.96 in 10.0 mi Calm Calm - N/A   Clear
6:35 PM 68.0 °F 53.6 °F 60% 29.96 in 10.0 mi Calm Calm - N/A   Clear
6:55 PM 66.2 °F 53.6 °F 64% 29.96 in 10.0 mi SW 3.5 mph - N/A   Clear
7:15 PM 64.4 °F 53.6 °F 68% 29.96 in 10.0 mi Calm Calm - N/A   Clear
7:55 PM 62.6 °F 55.4 °F 77% 29.97 in 10.0 mi Calm Calm - N/A   Clear
8:15 PM 62.6 °F 53.6 °F 72% 29.97 in 10.0 mi Calm Calm - N/A   Clear
8:35 PM 62.6 °F 53.6 °F 72% 29.97 in 10.0 mi South 3.5 mph - N/A   Clear
8:55 PM 60.8 °F 53.6 °F 77% 29.98 in 10.0 mi Calm Calm - N/A   Clear
9:15 PM 59.0 °F 55.4 °F 88% 29.98 in 10.0 mi WSW 3.5 mph - N/A   Scattered Clouds
9:35 PM 59.0 °F 55.4 °F 88% 29.97 in 10.0 mi West 4.6 mph - N/A   Scattered Clouds
9:55 PM 60.8 °F 57.2 °F 88% 29.98 in 10.0 mi Calm Calm - N/A   Clear
10:15 PM 59.0 °F 55.4 °F 88% 29.98 in 10.0 mi WSW 3.5 mph - N/A   Clear
10:35 PM 59.0 °F 57.2 °F 94% 29.98 in 10.0 mi West 3.5 mph - N/A   Clear
10:55 PM 57.2 °F 57.2 °F 100% 29.97 in 10.0 mi West 5.8 mph - N/A   Clear
11:15 PM 60.8 °F 59.0 °F 94% 29.97 in 10.0 mi West 5.8 mph - N/A   Clear